timestamp,surface_pressure_avg,surface_temp_avg,battery_voltage,lat,long
2020-03-29 00:09:01+00:00,283.7997,0.7,12.97,47.84626,-54.09684
2020-03-29 00:19:01+00:00,288.0447,0.7,12.73,47.84626,-54.09684
2020-03-29 00:29:01+00:00,295.70799999999997,0.7,12.73,47.84626,-54.09684
2020-03-29 00:39:01+00:00,299.9113,0.7,12.73,47.84626,-54.09684
2020-03-29 00:49:01+00:00,304.33799999999997,0.69,12.73,47.84626,-54.09684
2020-03-29 00:59:01+00:00,314.3297,0.64,12.73,47.84626,-54.09684
2020-03-29 01:09:01+00:00,323.783,0.6,12.73,47.84626,-54.09684
2020-03-29 01:19:01+00:00,328.7012,0.6,12.65,47.84626,-54.09684
2020-03-29 01:29:01+00:00,333.2762,0.53,12.65,47.84626,-54.09684
2020-03-29 01:39:01+00:00,340.1663,0.5,12.65,47.84626,-54.09684
2020-03-29 01:49:01+00:00,344.2162,0.5,12.65,47.84626,-54.09684
2020-03-29 01:59:01+00:00,345.1312,0.5,12.65,47.84626,-54.09684
2020-03-29 02:09:01+00:00,346.8347,0.5,12.65,47.84626,-54.09684
2020-03-29 02:19:01+00:00,349.30300000000005,0.5,12.65,47.84626,-54.09684
2020-03-29 02:29:01+00:00,348.8029,0.5,12.65,47.84626,-54.09684
2020-03-29 02:39:01+00:00,346.3863,0.5,12.65,47.84626,-54.09684
2020-03-29 02:49:01+00:00,346.3629,0.5,12.65,47.84626,-54.09684
2020-03-29 02:59:01+00:00,351.1513,0.5,12.65,47.84626,-54.09684
2020-03-29 03:09:01+00:00,348.523,0.5,12.65,47.84626,-54.09684
2020-03-29 03:19:01+00:00,339.5646,0.5,12.65,47.84626,-54.09684
2020-03-29 03:29:01+00:00,333.05800000000005,0.5,12.65,47.84626,-54.09684
2020-03-29 03:39:01+00:00,330.918,0.5,12.65,47.84626,-54.09684
2020-03-29 03:49:01+00:00,323.5113,0.5,12.65,47.84626,-54.09684
2020-03-29 03:59:01+00:00,315.0446,0.5,12.65,47.84626,-54.09684
2020-03-29 04:09:01+00:00,315.8314,0.5,12.65,47.84626,-54.09684
2020-03-29 04:19:01+00:00,317.4147,0.5,12.65,47.84626,-54.09684
2020-03-29 04:29:01+00:00,311.2097,0.5,12.65,47.84626,-54.09684
2020-03-29 04:39:01+00:00,302.728,0.5,12.65,47.84626,-54.09684
2020-03-29 04:49:01+00:00,301.513,0.54,12.65,47.84626,-54.09684
2020-03-29 04:59:01+00:00,302.8097,0.55,12.65,47.84626,-54.09684
2020-03-29 05:09:01+00:00,299.1946,0.54,12.65,47.84626,-54.09684
2020-03-29 05:19:01+00:00,289.048,0.59,12.65,47.84626,-54.09684
2020-03-29 05:29:01+00:00,278.068,0.59,12.65,47.84626,-54.09684
2020-03-29 05:39:01+00:00,273.4831,0.6,12.65,47.84626,-54.09684
2020-03-29 05:49:01+00:00,265.6398,0.6,12.65,47.84626,-54.09684
2020-03-29 05:59:01+00:00,255.2497,0.66,12.65,47.84626,-54.09684
2020-03-29 06:09:01+00:00,246.8831,0.7,12.65,47.84626,-54.09684
2020-03-29 06:19:01+00:00,243.2931,0.78,12.65,47.84626,-54.09684
2020-03-29 06:29:01+00:00,236.2764,0.9,12.65,47.84626,-54.09684
2020-03-29 06:39:01+00:00,232.1864,0.9,12.65,47.84626,-54.09684
2020-03-29 06:49:01+00:00,229.2331,1.0,12.65,47.84626,-54.09684
2020-03-29 06:59:01+00:00,225.2464,0.9,12.65,47.84626,-54.09684
2020-03-29 07:09:01+00:00,220.4881,0.9,12.65,47.84626,-54.09684
2020-03-29 07:19:01+00:00,214.3548,1.03,12.65,47.84626,-54.09684
2020-03-29 07:29:01+00:00,210.0181,1.1,12.65,47.84626,-54.09684
2020-03-29 07:39:01+00:00,210.0631,1.1,12.65,47.84626,-54.09684
2020-03-29 07:49:01+00:00,207.7964,1.19,12.65,47.84626,-54.09684
2020-03-29 07:59:01+00:00,200.5298,1.2,12.65,47.84626,-54.09684
2020-03-29 08:09:01+00:00,199.8381,1.2,12.65,47.84626,-54.09684
2020-03-29 08:19:01+00:00,204.6714,1.1,12.65,47.84626,-54.09684
2020-03-29 08:29:01+00:00,205.5781,1.1,12.65,47.84626,-54.09684
2020-03-29 08:39:01+00:00,206.1498,1.1,12.65,47.84626,-54.09684
2020-03-29 08:49:01+00:00,206.7164,1.1,12.65,47.84626,-54.09684
2020-03-29 08:59:01+00:00,201.5364,1.09,12.65,47.84626,-54.09684
2020-03-29 09:09:01+00:00,201.3765,1.0,12.65,47.84626,-54.09684
2020-03-29 09:19:01+00:00,210.6198,0.9,12.65,47.84626,-54.09684
2020-03-29 09:29:01+00:00,210.1314,0.8,12.65,47.84626,-54.09684
2020-03-29 09:39:01+00:00,209.3598,0.7,12.65,47.84626,-54.09684
2020-03-29 09:49:01+00:00,219.1798,0.7,12.65,47.84626,-54.09684
2020-03-29 09:59:01+00:00,224.9514,0.77,12.65,47.84626,-54.09684
2020-03-29 10:09:01+00:00,225.2981,0.7,12.65,47.84626,-54.09684
2020-03-29 10:19:01+00:00,230.4214,0.6,12.65,47.84626,-54.09684
2020-03-29 10:29:01+00:00,242.0697,0.5,12.65,47.84626,-54.09684
2020-03-29 10:39:01+00:00,248.0747,0.53,12.65,47.84626,-54.09684
2020-03-29 10:49:01+00:00,250.6431,0.51,12.65,47.84626,-54.09684
2020-03-29 10:59:01+00:00,254.4514,0.5,12.65,47.84626,-54.09684
2020-03-29 11:09:01+00:00,258.9447,0.5,12.65,47.84626,-54.09684
2020-03-29 11:19:01+00:00,259.0014,0.45,12.65,47.84626,-54.09684
2020-03-29 11:29:01+00:00,258.2397,0.4,12.65,47.84626,-54.09684
2020-03-29 11:39:01+00:00,263.9414,0.4,12.65,47.84626,-54.09684
2020-03-29 11:49:01+00:00,270.5731,0.45,12.65,47.84626,-54.09684
2020-03-29 11:59:01+00:00,273.1331,0.7,12.65,47.84626,-54.09684
2020-03-29 12:09:01+00:00,274.7564,0.7,12.65,47.84626,-54.09684
2020-03-29 12:19:01+00:00,280.8597,0.5,12.97,47.84626,-54.09684
2020-03-29 12:29:01+00:00,285.3797,0.4,12.97,47.84626,-54.09684
2020-03-29 12:39:01+00:00,288.8497,0.4,12.97,47.84626,-54.09684
2020-03-29 12:49:01+00:00,294.4247,0.4,12.97,47.84626,-54.09684
2020-03-29 12:59:01+00:00,303.1431,0.4,12.97,47.84626,-54.09684
2020-03-29 13:09:01+00:00,313.188,0.4,12.97,47.84626,-54.09684
2020-03-29 13:19:01+00:00,320.3513,0.4,13.53,47.84626,-54.09684
2020-03-29 13:29:01+00:00,325.4813,0.4,13.53,47.84626,-54.09684
2020-03-29 13:39:01+00:00,332.4412,0.4,13.53,47.84626,-54.09684
2020-03-29 13:49:01+00:00,337.5779,0.4,13.53,47.84626,-54.09684
2020-03-29 13:59:01+00:00,335.3780000000001,0.4,13.53,47.84626,-54.09684
2020-03-29 14:09:01+00:00,336.5929,0.4,13.53,47.84626,-54.09684
2020-03-29 14:19:01+00:00,341.9279,0.39,13.76,47.84626,-54.09684
2020-03-29 14:29:01+00:00,341.8813,0.39,13.76,47.84626,-54.09684
2020-03-29 14:39:01+00:00,341.2396,0.38,13.76,47.84626,-54.09684
2020-03-29 14:49:01+00:00,347.2313,0.4,13.76,47.84626,-54.09684
2020-03-29 14:59:01+00:00,348.108,0.41,13.76,47.84626,-54.09684
2020-03-29 15:09:01+00:00,341.3279,0.49,13.76,47.84626,-54.09684
2020-03-29 15:19:01+00:00,337.1113,0.4,14.0,47.84626,-54.09684
2020-03-29 15:29:01+00:00,338.6913,0.4,14.0,47.84626,-54.09684
2020-03-29 15:39:01+00:00,334.6563,0.43,14.0,47.84626,-54.09684
2020-03-29 15:49:01+00:00,327.3496,0.5,14.0,47.84626,-54.09684
2020-03-29 15:59:01+00:00,324.313,0.5,14.0,47.84626,-54.09684
2020-03-29 16:09:01+00:00,322.0413,0.5,14.0,47.84626,-54.09684
2020-03-29 16:19:01+00:00,316.9046,0.5,14.16,47.84626,-54.09684
2020-03-29 16:29:01+00:00,315.14799999999997,0.56,14.16,47.84626,-54.09684
2020-03-29 16:39:01+00:00,316.4014,0.6,14.16,47.84626,-54.09684
2020-03-29 16:49:01+00:00,313.3614,0.6,14.16,47.84626,-54.09684
2020-03-29 16:59:01+00:00,309.8796,0.6,14.16,47.84626,-54.09684
2020-03-29 17:09:01+00:00,307.818,0.6,14.16,47.84626,-54.09684
2020-03-29 17:19:01+00:00,302.9414,0.6,14.24,47.84626,-54.09684
2020-03-29 17:29:01+00:00,292.1481,0.6,14.24,47.84626,-54.09684
2020-03-29 17:39:01+00:00,283.4347,0.6,14.24,47.84626,-54.09684
2020-03-29 17:49:01+00:00,277.108,0.66,14.24,47.84626,-54.09684
2020-03-29 17:59:01+00:00,269.0381,0.8,14.24,47.84626,-54.09684
2020-03-29 18:09:01+00:00,260.7298,0.8,14.24,47.84626,-54.09684
2020-03-29 18:19:01+00:00,256.3814,0.7,14.24,47.84626,-54.09684
2020-03-29 18:29:01+00:00,248.9398,0.7,14.24,47.84626,-54.09684
2020-03-29 18:39:01+00:00,241.1414,0.8,14.24,47.84626,-54.09684
2020-03-29 18:49:01+00:00,239.6064,0.79,14.24,47.84626,-54.09684
2020-03-29 18:59:01+00:00,236.4797,0.76,14.24,47.84626,-54.09684
2020-03-29 19:09:01+00:00,227.0547,0.7,14.24,47.84626,-54.09684
2020-03-29 19:19:01+00:00,218.2198,0.76,14.08,47.84626,-54.09684
2020-03-29 19:29:01+00:00,213.0031,0.72,14.08,47.84626,-54.09684
2020-03-29 19:39:01+00:00,207.6298,0.74,14.08,47.84626,-54.09684
2020-03-29 19:49:01+00:00,206.3815,0.78,14.08,47.84626,-54.09684
2020-03-29 19:59:01+00:00,213.0432,0.77,14.08,47.84626,-54.09684
2020-03-29 20:09:01+00:00,217.7665,0.77,14.08,47.84626,-54.09684
2020-03-29 20:19:01+00:00,216.3731,0.75,13.92,47.84626,-54.09684
2020-03-29 20:29:01+00:00,215.5348,0.7,13.92,47.84626,-54.09684
2020-03-29 20:39:01+00:00,216.6598,0.7,13.92,47.84626,-54.09684
2020-03-29 20:49:01+00:00,215.9031,0.7,13.92,47.84626,-54.09684
2020-03-29 20:59:01+00:00,217.7131,0.78,13.92,47.84626,-54.09684
2020-03-29 21:09:01+00:00,223.9514,0.77,13.92,47.84626,-54.09684
2020-03-29 21:19:01+00:00,222.8814,0.8,13.68,47.84626,-54.09684
2020-03-29 21:29:01+00:00,219.8181,0.77,13.68,47.84626,-54.09684
2020-03-29 21:39:01+00:00,221.5948,0.7,13.68,47.84626,-54.09684
2020-03-29 21:49:01+00:00,230.1265,0.7,13.68,47.84626,-54.09684
2020-03-29 21:59:01+00:00,238.5614,0.69,13.68,47.84626,-54.09684
2020-03-29 22:09:01+00:00,245.6065,0.75,13.68,47.84626,-54.09684
2020-03-29 22:19:01+00:00,250.1314,0.77,13.29,47.84626,-54.09684
2020-03-29 22:29:01+00:00,254.5731,0.7,13.29,47.84626,-54.09684
2020-03-29 22:39:01+00:00,256.0314,0.7,13.29,47.84626,-54.09684
2020-03-29 22:49:01+00:00,258.6898,0.7,13.29,47.84626,-54.09684
2020-03-29 22:59:01+00:00,258.2747,0.7,13.29,47.84626,-54.09684
2020-03-29 23:09:01+00:00,265.7981,0.68,13.29,47.84626,-54.09684
2020-03-29 23:19:01+00:00,273.8581,0.69,12.89,47.84626,-54.09684
2020-03-29 23:29:01+00:00,278.0064,0.66,12.89,47.84626,-54.09684
2020-03-29 23:39:01+00:00,276.348,0.6,12.89,47.84626,-54.09684
2020-03-29 23:49:01+00:00,283.6263,0.6,12.89,47.84626,-54.09684
2020-03-29 23:59:01+00:00,293.473,0.48,12.89,47.84626,-54.09684
